GFSWCAN_700_spd_129.txt.gz
Wind_Speed
26 27 20 18 19 17 17 19 26 25 24 27 24 21 21 18 21 21 20 21 18 14 20 18 14 12 10 9 10 9 10 10 10 9 9 6 6 8 6 5 3 2 2 1 0 2 2 7 3 3 6 8 11 14
25 29 24 21 20 20 19 17 28 27 28 27 32 26 18 19 21 21 19 19 20 15 20 18 15 10 7 8 8 9 7 11 10 10 8 7 7 8 8 6 4 3 2 1 1 3 7 9 6 5 6 8 10 11
30 30 22 18 21 21 23 23 23 32 36 29 32 29 19 20 19 19 19 19 20 17 17 17 14 10 9 9 8 7 8 8 9 10 9 7 5 8 7 6 6 4 5 4 4 3 6 5 5 6 7 8 11 14
31 29 23 21 21 24 25 25 23 28 28 23 22 21 20 19 20 20 19 20 20 21 14 16 14 13 12 10 8 7 6 6 7 7 8 7 8 7 8 8 9 7 6 6 6 5 3 3 7 9 11 12 11 12
28 24 26 23 25 25 21 22 27 20 29 22 20 23 22 22 21 20 20 20 18 17 15 17 15 14 12 10 9 8 6 5 6 6 6 7 8 7 8 10 11 11 10 7 5 4 3 5 8 11 13 15 16 15
29 33 27 23 24 27 25 24 24 21 23 25 18 17 21 22 22 21 19 18 18 12 18 18 15 14 11 9 7 7 7 6 6 5 5 5 6 5 5 4 6 8 8 8 6 5 6 8 10 13 16 16 16 16
30 38 32 28 27 22 21 24 23 22 26 25 25 18 20 21 22 21 18 17 17 15 16 15 15 16 13 9 7 5 5 4 4 4 5 6 6 6 9 11 7 6 8 8 8 8 8 9 11 15 16 15 15 16
36 36 31 28 24 21 21 21 22 22 24 27 30 20 21 22 22 20 16 11 14 15 15 9 11 18 16 14 9 6 4 4 4 3 3 4 5 5 4 3 6 8 9 8 6 6 7 11 14 15 15 15 14 15
36 32 29 26 27 23 23 24 24 24 24 24 27 24 21 18 18 17 18 17 17 16 12 11 14 17 20 15 12 7 5 3 2 3 3 3 5 4 4 2 4 4 3 4 5 8 12 13 14 14 13 13 14 15
23 30 28 25 29 26 28 26 24 23 24 22 21 21 21 19 18 18 15 17 19 20 15 9 15 13 20 18 10 7 5 4 2 4 3 6 8 5 6 7 7 5 6 7 8 10 11 12 12 11 11 12 13 14
33 32 26 28 30 31 31 28 25 23 21 21 22 21 20 18 16 14 10 11 10 10 13 13 17 14 18 15 12 7 4 4 3 3 3 4 3 4 2 3 5 6 6 7 8 9 9 9 10 9 10 11 12 13
28 31 29 33 33 34 31 27 24 20 18 18 17 19 21 17 8 6 10 9 8 9 13 17 18 17 19 16 7 6 4 4 3 5 4 4 2 4 4 4 5 5 6 7 7 7 8 7 8 8 8 10 12 14
33 34 31 31 33 32 31 26 24 19 17 15 20 16 13 6 6 7 9 8 7 11 16 23 22 22 19 10 6 5 4 4 4 4 4 5 5 4 4 3 4 5 5 6 6 6 5 4 4 6 7 9 12 14
24 28 35 33 36 37 34 28 23 20 18 15 10 9 4 5 6 6 12 14 12 14 19 24 24 17 16 11 5 4 5 4 4 5 6 5 4 4 5 4 4 5 5 6 5 2 1 2 3 5 7 10 13 14
26 26 29 36 35 29 26 24 23 21 19 11 6 5 7 6 11 10 16 17 13 17 21 26 24 15 16 6 7 5 5 4 5 2 1 2 2 2 3 4 5 6 6 4 2 2 2 1 1 4 8 10 11 12
31 31 29 35 30 26 23 21 20 19 17 8 4 5 10 11 11 10 13 18 15 18 22 19 15 8 8 6 7 8 5 5 3 1 1 2 3 4 4 5 7 7 5 4 4 3 3 3 1 5 7 9 10 11
29 35 31 31 33 27 25 22 21 19 12 6 6 6 11 11 10 9 10 16 19 18 25 11 9 9 7 8 9 11 18 10 5 7 8 10 10 8 8 8 9 6 6 5 5 4 6 2 2 5 7 8 9 10
25 29 31 30 24 31 28 26 23 12 10 9 10 6 8 12 5 8 11 13 18 24 23 13 11 12 7 7 2 2 7 11 9 8 9 9 9 9 10 10 8 8 8 7 6 8 6 4 5 6 8 8 8 9
25 30 26 26 26 34 31 26 22 8 8 9 10 14 8 9 8 7 8 11 13 20 29 22 11 18 22 15 10 8 6 6 9 10 10 10 9 9 10 9 9 10 9 8 10 9 6 7 8 9 9 9 8 8
23 28 29 24 27 28 19 15 18 8 4 5 9 16 20 15 12 14 11 6 9 17 20 29 30 23 9 6 10 17 20 19 18 17 14 12 12 12 12 11 13 13 11 11 11 10 9 10 10 11 11 11 10 9
20 25 27 24 22 23 10 14 13 10 9 7 8 8 15 21 17 9 6 3 6 11 23 23 24 22 22 20 15 11 10 10 9 9 10 12 14 15 15 15 14 13 13 14 14 13 12 13 13 13 13 13 12 11
15 22 24 18 16 15 9 9 8 7 8 6 7 11 14 20 21 15 11 13 10 10 13 18 19 22 23 26 28 24 21 18 17 16 16 16 15 12 13 15 15 15 16 17 16 15 15 14 15 15 15 15 15 14
13 21 20 17 11 7 7 8 9 9 7 8 6 9 13 16 17 16 16 13 11 12 14 16 16 18 22 24 24 22 21 20 19 18 18 17 15 15 16 17 18 19 19 18 18 17 16 16 17 17 17 17 17 17
12 21 19 12 8 6 7 5 8 10 11 9 7 7 10 12 13 15 17 15 14 13 15 17 18 19 19 20 20 20 19 19 18 18 17 17 16 17 19 19 20 20 20 21 20 19 18 18 19 19 19 19 19 20
8 9 11 10 11 7 10 7 7 7 8 6 6 5 5 9 11 13 13 11 11 13 16 17 18 19 19 19 20 18 17 18 18 19 19 19 18 20 21 22 22 22 22 21 20 21 22 23 22 22 22 22 23 23
5 4 7 8 11 8 7 5 4 2 5 8 7 5 6 9 10 7 8 6 9 12 14 14 14 15 16 17 18 20 21 21 22 23 23 23 21 21 22 24 25 24 23 23 25 25 26 26 26 26 26 26 27 26
5 2 8 7 5 7 6 7 8 7 5 3 6 8 6 5 5 5 4 5 5 5 6 8 11 12 14 16 18 20 22 23 24 25 25 25 24 23 24 26 27 29 30 30 29 28 28 28 28 28 29 30 29 29
7 10 7 4 5 5 10 12 9 5 3 4 6 5 4 4 3 3 2 0 3 5 6 8 8 10 13 17 19 21 22 24 25 24 24 25 25 24 24 24 26 28 28 29 28 28 28 29 29 30 30 30 31 31
11 10 11 13 13 10 11 9 6 7 11 11 11 8 7 7 8 10 11 12 12 12 12 11 11 11 12 13 16 19 20 20 21 21 23 25 25 27 28 28 28 29 30 30 31 31 31 31 31 30 30 30 30 30
17 16 18 18 18 18 17 17 19 18 18 18 16 16 16 16 17 16 16 16 16 16 15 14 14 14 14 14 15 16 17 19 20 21 23 24 26 26 26 27 28 29 30 31 31 31 31 30 30 29 29 29 29 29
23 21 20 19 21 21 23 24 24 24 23 20 18 19 19 19 17 16 16 16 16 15 15 15 15 15 15 15 15 15 15 17 20 22 24 25 26 26 26 27 28 29 29 30 30 31 30 29 28 28 28 27 26 27
20 22 22 23 22 19 16 15 15 16 16 17 18 17 17 18 20 20 19 18 16 16 16 16 16 15 16 16 16 17 17 17 18 20 21 23 24 25 26 27 27 27 27 27 28 29 29 27 26 26 25 25 24 24
13 14 14 14 12 10 8 9 8 9 11 13 15 17 18 18 20 20 18 17 17 16 16 16 16 17 17 17 17 17 18 19 20 21 22 23 24 25 25 26 27 27 26 25 24 23 23 22 22 22 22 21 21 21

GFSWCAN_700_spd_132.txt.gz
Wind_Speed
29 29 22 21 21 15 16 19 24 23 24 22 22 23 30 31 23 18 16 17 18 20 27 23 19 19 17 17 15 16 17 16 17 13 9 6 6 9 7 7 7 6 4 4 3 5 4 4 3 5 6 9 10 11
26 29 24 22 23 20 17 22 24 30 28 27 25 24 21 20 19 19 19 19 20 22 26 22 17 15 12 12 13 16 14 18 16 12 9 8 7 10 10 6 8 4 6 4 5 6 5 2 2 3 4 7 9 11
25 29 25 23 23 20 18 17 21 24 30 27 29 24 22 16 20 19 21 22 20 18 25 21 16 13 11 12 12 13 11 16 13 13 14 10 6 11 8 7 7 8 8 5 4 4 3 1 2 2 3 6 9 10
26 36 28 23 22 20 17 20 21 25 33 30 29 28 19 18 20 19 20 22 21 23 21 20 15 13 12 11 10 10 10 11 12 13 12 10 8 10 8 7 8 8 7 6 8 7 3 4 2 1 4 7 9 10
24 36 27 22 20 19 20 25 23 27 28 26 28 25 19 21 22 21 22 23 23 17 22 21 16 14 12 11 9 9 9 10 10 10 9 10 10 7 9 9 9 11 13 10 9 6 5 3 1 3 6 9 10 10
29 32 23 20 21 21 23 23 16 21 27 28 29 24 23 23 23 23 23 22 23 12 21 21 16 13 11 9 9 9 8 8 8 8 8 7 7 8 5 5 7 9 13 12 10 7 5 5 5 7 10 11 12 12
38 30 26 22 24 22 23 20 21 33 30 27 27 23 24 23 23 24 22 23 24 17 18 19 15 14 12 10 8 8 8 9 8 8 7 6 6 6 6 6 8 9 8 10 8 6 5 6 7 11 12 12 12 12
34 32 25 26 25 24 28 22 20 20 30 27 26 25 25 24 24 21 19 21 20 20 16 9 10 16 13 10 8 7 7 8 8 7 6 6 5 5 3 3 4 6 7 7 8 7 6 7 10 11 12 12 11 11
27 31 28 27 26 24 24 25 23 22 31 28 25 25 23 25 24 19 19 17 14 15 9 10 15 16 17 14 10 6 5 7 6 7 7 5 5 4 4 3 3 5 6 5 6 6 6 8 10 10 9 9 9 10
34 35 32 29 24 20 20 20 21 25 32 33 24 27 25 23 22 19 18 15 15 16 13 11 15 16 17 18 12 7 6 6 5 7 5 5 6 6 6 7 7 7 6 6 6 6 6 8 8 7 7 7 8 8
42 39 32 28 23 21 22 21 23 25 29 35 32 27 25 20 19 18 12 15 13 11 16 14 16 12 15 17 13 9 6 6 5 5 5 3 3 6 5 6 6 6 6 6 5 6 6 6 6 5 4 4 5 6
38 35 30 31 27 29 28 27 24 22 23 23 23 22 24 19 11 7 14 12 9 10 15 18 16 15 19 17 9 8 5 6 3 6 4 3 6 8 6 5 6 6 6 5 5 5 4 4 3 1 3 4 6 8
34 31 31 32 33 31 27 22 21 19 18 18 25 21 14 7 8 9 11 10 8 13 16 22 21 19 21 13 7 6 5 4 4 4 4 5 7 7 7 6 6 6 5 5 5 4 3 2 2 3 3 5 6 8
30 31 33 33 35 32 28 24 23 21 22 25 11 10 6 6 8 9 16 17 14 17 21 23 24 16 19 11 6 4 5 5 3 4 4 5 6 6 8 7 5 5 5 5 5 4 4 4 4 3 2 3 6 9
28 27 29 33 34 33 28 26 23 22 20 9 6 4 5 7 10 13 15 15 14 18 25 25 23 15 19 6 5 4 5 4 6 3 3 5 5 5 6 6 6 5 5 6 6 6 6 6 4 3 1 3 6 8
35 31 31 31 35 36 30 24 21 18 13 6 4 7 9 11 11 14 15 12 12 19 27 23 15 9 9 5 7 6 4 4 5 5 4 4 3 3 4 4 5 5 6 7 8 8 9 7 6 5 1 3 5 7
32 35 32 32 35 34 27 22 18 15 7 6 8 8 8 9 10 10 14 12 16 21 23 11 8 8 7 6 7 8 8 5 3 4 4 5 7 8 6 6 6 7 8 9 10 10 10 9 9 6 4 5 6 7
25 38 36 33 29 27 23 20 18 7 9 11 10 7 6 7 5 6 8 15 17 26 16 12 10 11 6 5 3 2 11 15 14 9 7 7 7 8 8 8 9 9 10 11 11 12 11 11 10 8 8 8 9 9
26 29 35 29 27 25 23 19 14 7 12 10 8 6 5 7 6 4 6 10 17 21 25 17 7 15 15 11 4 4 2 2 6 7 8 8 9 8 7 8 10 10 12 12 13 14 14 14 12 11 11 11 12 12
23 24 22 24 24 22 14 12 14 7 8 7 6 8 11 10 7 6 6 7 12 16 22 28 18 9 7 9 8 6 11 15 17 16 15 15 13 11 11 12 13 14 15 15 15 15 15 16 15 14 14 14 14 14
25 21 20 21 18 25 13 16 14 10 8 6 5 7 11 16 14 12 14 10 8 8 14 18 26 32 27 19 18 17 13 10 10 11 10 9 11 11 13 16 17 16 17 17 17 17 18 18 17 16 15 16 16 17
29 25 24 23 22 15 10 13 12 10 9 6 5 9 12 13 17 15 15 12 8 9 12 16 18 18 22 24 23 22 20 20 19 17 16 17 17 17 17 16 17 17 18 18 19 19 19 20 19 19 18 19 19 20
20 23 21 20 16 8 9 11 11 10 6 7 9 10 13 14 17 17 16 14 16 13 15 16 18 20 22 23 24 24 23 22 22 22 23 21 19 18 17 16 17 19 20 20 21 21 21 21 22 23 23 23 24 24
21 21 18 10 8 6 8 10 11 9 9 10 10 8 10 14 15 18 21 19 17 17 16 17 19 19 19 18 19 21 23 25 25 24 23 21 20 18 17 17 18 21 22 23 23 23 23 23 24 26 26 27 27 27
16 12 5 7 9 8 8 9 8 8 9 9 9 9 7 10 12 16 19 20 19 19 19 20 20 20 20 21 21 23 23 23 23 22 22 21 20 20 20 19 19 22 25 25 25 24 25 26 27 27 28 28 29 29
4 6 7 8 9 7 6 6 6 6 9 10 8 8 9 10 9 8 14 16 17 17 18 18 19 20 20 21 22 22 22 22 22 21 21 21 22 23 23 22 21 23 24 26 27 28 29 30 29 29 29 30 31 31
3 4 7 8 6 8 7 3 4 6 6 6 9 11 8 6 7 9 10 11 10 9 10 11 12 14 15 16 17 19 20 21 21 21 22 22 23 23 23 24 24 25 26 28 30 31 32 32 32 32 31 31 31 31
5 6 6 6 6 3 7 8 6 5 4 4 4 5 5 6 5 7 8 6 4 4 4 6 8 9 10 12 15 18 19 20 22 23 24 25 26 26 26 26 26 27 26 26 27 29 30 30 31 31 31 31 31 31
6 5 6 7 9 10 6 5 6 6 3 4 5 5 7 6 5 7 9 9 9 10 10 11 12 12 12 12 12 12 13 16 20 22 24 25 24 24 24 25 25 25 26 26 27 28 30 31 31 31 31 31 30 30
8 9 11 12 14 16 14 10 11 12 13 14 15 16 15 14 15 16 16 16 15 15 14 14 14 14 14 13 13 13 14 14 15 17 20 21 21 22 22 23 23 24 25 26 26 26 26 27 28 28 28 28 28 28
17 17 17 17 17 15 16 17 18 19 20 21 21 21 20 19 19 18 18 17 16 16 15 15 15 15 15 15 15 15 15 15 15 16 17 18 20 21 21 22 22 23 24 24 24 25 25 25 26 26 26 26 26 26
16 18 19 20 20 19 19 19 19 18 18 18 18 19 20 20 21 20 18 18 18 18 17 17 16 16 16 16 16 16 16 16 17 17 18 19 21 22 23 23 24 24 25 25 25 24 24 24 25 25 24 23 23 23
14 12 14 16 16 15 13 13 14 15 15 16 17 17 18 19 22 20 18 17 17 17 17 17 17 17 16 16 16 16 16 16 17 18 19 20 20 21 21 21 21 21 21 22 22 21 22 22 22 21 20 20 21 21

GFSWCAN_700_spd_135.txt.gz
Wind_Speed
26 31 26 22 20 18 15 12 15 16 27 30 29 32 30 24 23 18 17 16 21 23 33 27 26 28 20 17 16 23 22 20 22 15 15 11 7 12 9 10 12 11 9 7 9 8 7 9 5 6 9 10 9 9
29 31 28 23 21 18 16 15 15 23 26 25 20 19 23 21 18 16 17 16 19 25 32 27 22 21 22 20 19 18 14 22 13 13 12 10 7 9 11 8 8 9 7 5 6 6 7 8 10 10 8 6 4 6
32 31 28 24 24 18 18 17 23 24 24 19 22 23 25 21 19 17 17 18 17 20 26 21 22 19 17 16 17 20 22 22 18 20 12 9 8 9 11 7 11 11 12 10 7 7 9 8 8 7 5 4 6 8
30 32 29 26 25 22 20 21 20 30 25 24 23 23 24 22 19 19 20 18 19 29 22 22 19 15 14 13 14 15 15 16 15 16 10 7 6 13 10 6 6 6 11 11 12 9 8 9 8 6 4 4 6 8
28 33 29 24 26 24 21 23 19 26 29 23 25 26 19 21 21 22 23 21 20 15 23 24 16 14 15 13 12 12 13 14 14 15 12 8 8 9 7 8 8 9 11 9 10 6 8 8 8 6 6 8 9 10
32 34 27 25 25 23 21 22 19 26 32 32 28 22 19 21 23 26 23 22 25 8 25 16 16 16 14 13 11 11 11 13 14 13 14 12 11 9 8 7 12 12 13 12 11 9 7 7 7 6 7 10 11 11
28 40 29 24 22 22 22 21 20 25 32 32 28 23 18 21 22 26 26 27 26 12 18 16 13 16 14 11 10 10 10 12 9 10 5 6 9 9 6 5 11 9 8 8 8 9 9 8 7 8 10 11 11 11
28 36 29 25 26 26 24 20 19 25 28 27 31 22 21 22 22 20 20 22 22 20 12 10 9 14 13 9 8 9 9 9 10 7 8 6 8 8 5 7 3 6 7 7 8 9 8 8 7 9 9 9 8 9
35 30 26 28 26 26 22 21 28 28 26 30 26 26 25 25 23 18 21 24 19 14 8 9 14 13 14 11 9 9 8 9 10 9 6 8 6 5 8 6 5 6 7 7 7 7 7 7 7 8 7 6 6 7
35 28 26 28 24 24 23 21 29 25 28 29 26 27 23 25 20 21 21 20 20 12 7 12 11 11 15 14 10 8 7 8 5 6 9 6 7 7 8 8 7 7 7 7 7 7 7 6 6 5 5 5 4 4
30 28 28 26 24 22 22 22 20 28 28 30 28 28 26 23 22 21 13 10 8 7 9 10 9 13 13 11 12 8 6 6 4 5 7 3 5 8 9 7 8 9 8 8 8 7 7 5 5 4 3 1 1 2
30 30 26 22 21 21 21 21 24 30 32 26 24 24 25 19 10 6 9 7 6 8 9 13 13 13 16 14 9 7 5 6 3 6 6 3 9 10 9 8 8 9 9 9 8 7 6 5 4 3 3 2 0 2
34 30 26 25 24 23 21 21 22 34 32 27 30 27 17 10 7 8 10 10 9 11 13 20 19 14 18 12 7 6 5 4 4 5 3 5 9 11 10 10 9 10 9 9 8 7 6 6 6 6 4 2 1 2
35 32 30 32 30 28 24 25 24 23 25 21 13 13 8 7 9 8 10 13 14 14 16 19 19 14 17 11 6 5 6 5 4 4 3 7 9 9 10 11 9 9 9 9 8 8 8 8 8 7 5 4 2 2
31 34 33 32 29 26 25 25 26 29 21 11 8 5 8 7 11 11 14 14 16 14 20 19 20 14 17 6 5 5 7 5 5 4 7 7 8 9 9 9 9 8 9 9 9 9 10 11 10 8 7 6 4 3
34 33 32 31 27 24 25 27 26 21 10 5 4 10 11 11 11 12 12 13 13 17 22 17 12 9 11 5 7 5 4 4 3 8 6 6 6 6 6 8 8 9 9 10 10 12 12 12 11 10 9 8 6 6
34 34 34 32 29 25 24 23 19 12 5 5 9 11 10 9 9 11 10 9 15 23 21 11 9 8 7 5 5 6 4 7 10 8 6 4 5 7 8 8 8 9 10 11 12 13 14 14 12 11 12 10 9 9
27 26 27 32 31 28 23 19 14 5 9 15 12 11 9 8 7 7 10 9 18 25 20 11 8 8 5 4 5 7 11 11 9 8 6 6 6 8 9 11 11 11 12 12 14 15 16 15 15 14 14 13 12 12
25 26 23 25 32 30 23 16 10 9 14 13 12 9 7 5 5 5 7 10 14 21 16 14 6 10 8 7 7 4 2 1 6 11 9 7 7 8 8 9 11 12 13 14 15 16 17 18 18 17 17 17 15 14
25 28 28 29 28 25 12 12 11 11 13 10 7 5 3 3 4 3 4 9 15 20 24 18 12 7 12 13 9 5 6 7 9 11 13 13 14 14 13 12 13 15 14 15 17 19 18 18 18 18 18 19 19 18
27 27 26 26 23 17 7 13 10 9 9 8 6 4 4 7 9 7 6 6 9 15 19 24 26 22 13 11 14 12 10 10 10 9 10 11 11 10 11 13 14 17 18 17 18 20 20 19 20 21 21 22 23 24
24 22 23 20 15 12 6 8 10 7 7 4 4 5 8 9 11 16 14 13 14 13 11 14 18 21 26 29 29 27 26 24 20 17 15 16 16 16 17 18 19 19 19 20 20 21 21 23 23 22 23 24 27 28
19 17 18 17 13 8 9 11 10 8 7 7 6 8 12 12 14 15 19 19 19 15 15 14 15 17 19 19 20 22 23 22 21 22 21 20 21 22 22 21 21 21 20 19 21 23 23 24 25 25 26 27 28 29
22 20 16 9 8 7 13 12 11 10 12 13 12 12 13 14 13 16 19 23 18 16 17 17 17 18 18 18 19 21 21 22 22 21 21 23 24 25 24 24 23 22 21 22 23 24 25 26 27 27 29 30 30 31
15 11 6 7 9 9 9 10 12 13 13 12 13 13 13 10 10 15 18 23 22 21 18 19 20 19 19 19 19 19 18 19 21 22 22 23 23 23 23 24 23 22 22 22 23 24 27 28 28 29 30 31 31 32
8 5 9 10 12 10 9 10 10 11 11 12 11 12 11 10 10 8 19 19 19 20 20 19 18 19 21 21 20 21 20 22 23 23 24 24 24 23 22 22 23 24 25 25 26 26 28 29 30 31 32 32 32 33
3 4 8 11 10 9 8 9 9 8 7 7 11 12 8 6 7 12 13 14 14 12 12 14 15 17 17 18 19 20 21 21 22 23 24 24 25 25 25 25 25 26 25 26 26 26 27 29 30 31 32 33 33 32
4 8 9 10 8 7 4 4 4 4 5 8 8 7 6 6 7 8 9 9 8 8 8 8 9 10 11 13 15 16 18 20 20 22 24 25 26 26 26 26 26 26 25 26 26 26 27 28 29 29 30 31 31 31
7 8 8 8 8 8 6 3 5 7 7 4 5 6 6 6 6 5 6 7 9 9 10 10 11 12 13 14 14 15 16 16 17 19 21 23 23 23 23 23 23 23 23 23 24 25 25 26 26 26 27 28 29 30
6 8 9 9 10 12 13 12 11 10 10 12 13 15 15 15 15 15 16 16 16 16 16 16 16 15 15 16 17 17 17 17 17 18 18 19 18 18 18 19 20 21 21 22 22 23 24 24 24 25 25 25 26 26
9 10 14 16 18 17 16 16 17 17 18 19 20 23 23 23 23 22 20 20 19 18 18 18 18 18 18 18 18 18 18 17 17 17 17 18 18 19 19 19 20 20 20 21 21 22 22 22 22 23 23 23 23 24
12 16 15 17 20 17 18 19 19 21 21 23 23 22 23 24 25 24 23 21 21 21 21 20 20 20 19 19 18 18 18 17 17 17 18 18 19 20 21 21 22 22 22 22 22 22 22 22 22 22 23 23 24 25
19 16 16 16 17 18 17 17 19 19 19 20 21 22 22 22 23 22 20 19 19 18 18 18 18 18 18 19 18 18 18 18 18 18 19 19 20 20 20 19 19 19 19 20 20 20 20 20 20 21 21 22 22 22

GFSWCAN_700_spd_141.txt.gz
Wind_Speed
29 31 34 28 24 22 16 13 12 12 10 25 20 17 14 17 19 22 18 22 27 30 34 34 32 40 39 36 36 36 31 26 27 22 24 14 10 17 14 20 27 22 14 13 13 4 6 16 13 11 8 6 6 8
26 31 38 28 24 21 16 12 12 13 13 23 21 20 15 17 19 16 17 21 24 31 34 37 34 33 26 21 29 25 26 29 24 26 14 14 11 16 20 17 11 11 17 13 9 10 10 13 14 8 8 8 8 6
25 32 37 29 28 23 17 13 12 13 10 19 25 27 21 25 21 13 21 32 23 28 30 28 28 28 24 21 15 20 20 29 30 25 16 14 8 15 15 13 23 17 20 16 14 13 8 11 10 9 8 8 7 6
28 30 31 32 27 22 17 15 14 13 12 18 27 25 22 23 19 18 30 29 32 31 32 26 30 27 20 18 15 18 21 25 26 21 17 14 12 14 11 10 19 15 17 17 17 17 17 10 11 9 8 6 5 5
33 29 29 25 22 19 16 14 13 16 17 18 30 28 20 22 21 22 23 23 24 18 33 23 18 18 17 15 13 13 16 20 26 23 18 16 14 13 10 8 15 15 14 13 20 21 15 11 9 8 7 6 6 6
30 29 31 29 26 20 17 14 13 19 17 21 21 22 29 26 24 21 25 18 20 9 27 24 18 14 12 13 15 16 17 19 25 22 19 20 17 15 14 10 14 15 12 9 9 9 9 9 7 8 8 7 6 9
37 25 34 27 25 20 17 16 16 16 15 21 22 30 27 25 23 24 21 22 18 11 25 21 14 15 16 14 14 17 20 20 20 21 19 18 18 18 17 15 18 14 12 12 10 10 9 8 7 8 6 6 7 8
26 34 33 26 24 22 16 16 16 18 15 20 23 32 26 23 21 19 21 20 18 21 17 11 15 18 18 17 18 19 18 15 16 17 16 13 18 19 11 18 13 11 11 11 11 10 10 9 8 7 7 6 6 6
34 33 25 25 23 19 18 17 13 15 20 24 25 31 23 22 19 23 20 16 14 8 7 11 21 20 15 13 15 16 17 14 14 14 15 13 15 10 13 10 10 7 7 8 10 11 11 10 8 6 6 5 5 5
34 27 23 23 22 18 19 18 16 16 29 25 24 22 21 21 18 18 16 15 9 7 8 16 14 18 18 14 13 10 10 10 12 13 13 14 13 11 10 9 9 8 9 9 9 10 9 8 6 4 5 6 4 2
30 26 23 21 19 20 16 16 18 23 29 25 22 23 24 22 22 16 10 8 7 7 11 10 8 18 15 11 12 9 7 7 6 7 9 9 12 13 13 11 10 10 9 9 9 9 8 6 4 5 6 5 4 3
29 21 20 20 19 17 16 21 21 20 22 25 21 23 23 15 9 6 12 9 6 7 16 12 16 13 14 10 7 6 5 6 3 7 7 7 11 13 12 10 9 9 9 9 9 9 7 5 4 5 6 6 5 4
25 23 25 23 22 22 18 16 21 26 28 26 27 19 13 4 5 7 8 9 9 15 16 16 14 13 12 7 6 5 4 4 3 6 6 9 9 13 12 11 10 9 9 8 8 5 4 4 6 7 8 8 6 5
26 25 25 23 21 20 19 16 24 29 33 26 15 13 8 5 6 10 13 14 14 13 13 13 13 13 11 7 5 4 7 5 4 3 5 7 9 10 11 12 11 9 8 9 7 7 6 7 8 9 9 8 7 7
26 24 23 21 19 19 18 19 24 24 23 14 8 6 6 7 11 12 11 11 12 12 13 15 14 8 10 5 5 5 7 5 6 3 5 5 8 11 12 10 10 9 9 10 9 9 7 9 11 11 12 11 10 9
23 22 21 20 20 21 22 26 28 24 19 8 5 7 6 8 9 11 11 11 16 18 17 14 9 6 6 4 5 4 7 3 7 7 6 7 9 10 9 8 9 11 10 9 8 9 8 11 13 14 14 13 13 12
31 32 30 30 29 28 31 25 20 15 5 9 11 10 8 8 9 11 12 14 17 21 21 11 6 5 5 4 5 6 5 6 5 6 9 9 9 8 7 8 9 9 9 8 9 9 10 13 14 15 15 16 16 16
28 33 37 35 33 31 23 14 11 14 21 17 13 11 11 13 12 11 13 17 21 21 18 10 7 8 5 5 7 8 7 5 8 11 10 8 6 6 6 7 9 10 9 9 11 11 11 13 15 17 18 19 19 19
24 27 27 26 27 24 19 13 18 18 20 18 17 16 15 13 12 12 12 15 18 13 14 12 6 8 6 10 12 9 8 9 11 12 9 6 4 5 6 6 6 7 9 11 12 11 12 13 15 18 19 20 21 22
18 20 22 21 20 18 11 14 18 13 16 16 16 15 14 13 12 10 8 8 11 11 8 6 3 5 11 7 9 7 7 8 7 7 8 10 10 10 9 9 10 11 12 12 13 12 14 16 16 18 20 20 22 23
17 14 13 14 15 10 10 11 10 15 16 14 13 13 11 10 8 6 5 3 5 11 14 13 10 8 5 6 7 8 8 7 7 6 6 4 7 9 10 11 11 11 11 12 14 14 15 17 19 21 23 24 24 25
14 14 11 9 8 8 7 10 12 13 11 12 10 8 7 6 5 3 2 3 7 9 11 12 13 15 16 16 16 14 15 16 16 16 15 14 12 13 13 13 14 15 16 16 17 18 20 20 20 22 23 24 24 26
11 10 11 11 8 5 9 12 14 11 9 9 6 3 1 1 4 7 6 7 10 10 11 12 12 13 15 16 17 18 20 23 24 24 25 26 26 22 19 18 18 19 19 20 20 20 21 21 22 22 22 22 23 24
15 13 11 8 6 5 14 13 12 10 8 7 4 3 6 7 9 11 12 14 14 12 12 15 15 15 16 16 16 15 15 17 20 22 23 22 22 23 22 22 22 21 22 21 21 21 22 22 23 23 22 22 23 25
12 10 6 6 6 7 9 10 10 8 6 6 7 8 12 11 12 11 11 15 15 11 10 14 15 16 17 17 18 19 17 16 18 19 20 20 20 22 23 22 22 23 22 22 23 24 24 23 23 24 24 24 25 25
6 4 6 6 7 7 7 8 7 7 8 9 8 9 11 9 8 6 12 14 12 11 10 11 14 17 19 18 19 19 19 19 19 21 21 20 21 22 23 24 25 25 23 24 25 25 25 25 25 26 26 26 26 27
4 3 5 6 8 9 9 9 9 8 7 6 9 10 8 5 6 10 11 11 11 12 11 11 12 14 15 16 18 18 18 18 19 20 20 20 21 23 23 24 25 25 24 24 25 26 27 27 27 26 26 26 26 26
7 6 7 8 11 11 9 8 7 6 6 8 10 8 4 5 5 7 9 12 11 10 9 9 10 10 12 13 12 12 11 12 13 15 17 19 20 21 22 22 23 23 24 25 25 25 24 25 24 24 24 23 23 24
6 7 9 7 10 10 9 10 8 6 5 6 7 9 13 12 11 9 10 9 7 8 9 10 11 13 14 13 13 13 13 13 13 15 17 19 15 16 18 19 19 20 20 20 21 20 20 20 20 21 21 21 21 21
4 6 9 8 9 12 11 10 10 11 12 12 12 14 15 16 16 18 18 18 18 18 18 17 18 18 19 18 15 15 15 15 16 16 17 18 17 18 18 19 19 20 20 19 19 20 20 19 20 20 20 20 20 20
6 7 9 11 12 12 13 15 18 19 21 21 21 20 21 22 23 24 24 24 23 23 24 23 22 21 21 21 20 19 19 18 18 18 18 18 19 19 19 19 19 19 20 20 20 20 21 20 20 20 20 19 17 17
9 8 9 10 13 14 16 17 19 20 22 24 24 24 25 25 26 27 28 27 25 24 23 23 22 22 22 22 21 21 20 19 19 18 18 18 19 19 20 20 19 19 19 19 18 17 18 18 18 18 18 17 17 17
16 17 17 18 20 21 20 18 17 16 20 24 24 22 22 24 25 24 24 23 22 21 20 19 19 18 18 18 18 17 17 17 18 18 18 18 18 18 18 17 16 16 16 16 16 15 15 14 14 14 14 15 16 16

GFSWCAN_700_spd_144.txt.gz
Wind_Speed
24 27 27 31 30 28 26 21 16 16 19 18 19 18 21 18 19 16 19 22 24 22 19 25 36 41 39 42 44 38 36 33 26 29 18 14 10 18 14 22 27 26 18 15 15 6 8 11 12 12 7 6 4 6
24 24 25 33 27 24 21 17 15 16 14 27 26 15 18 21 20 18 16 24 23 23 21 17 35 30 35 36 43 38 39 34 24 21 14 17 10 17 19 18 17 23 20 14 14 11 11 7 16 12 10 7 6 7
21 25 26 32 29 24 20 16 14 16 16 26 21 20 14 15 18 13 17 24 23 24 23 20 24 34 34 26 21 28 34 35 23 21 18 20 14 19 19 14 25 24 25 14 13 13 11 12 11 10 9 8 7 6
16 19 30 37 27 24 19 16 15 14 17 25 26 20 22 18 10 23 25 28 27 30 22 23 23 24 27 25 22 16 18 22 23 21 23 21 17 20 18 18 26 20 19 23 22 18 14 14 12 11 10 8 7 6
10 19 32 35 25 24 19 17 14 14 16 24 29 21 23 21 17 31 23 30 26 20 32 30 25 24 24 16 12 14 18 23 26 24 19 18 14 12 16 15 22 21 17 18 17 15 17 13 11 12 10 8 7 6
16 19 25 34 29 23 18 15 13 16 16 24 32 23 23 19 20 22 25 28 21 29 34 33 25 28 23 17 16 16 19 24 26 25 20 14 13 11 17 17 18 18 15 13 11 10 9 12 11 11 10 8 7 6
22 24 27 27 22 19 16 13 13 18 18 23 25 19 18 18 17 21 18 24 20 14 24 20 17 17 17 16 16 17 20 24 23 23 22 19 18 13 14 16 15 15 13 12 10 8 9 10 10 10 10 9 8 7
23 31 32 29 21 18 18 14 16 15 24 25 24 26 26 20 23 17 27 25 16 16 18 11 15 19 18 18 19 20 21 20 20 24 23 19 18 19 18 18 15 13 13 12 10 9 10 10 11 12 11 9 7 6
31 27 34 26 25 18 17 15 16 16 19 25 33 26 23 21 24 26 22 17 14 10 11 13 23 22 20 20 21 20 16 15 15 18 20 19 21 15 17 13 14 13 11 9 9 11 12 12 12 11 8 7 7 5
31 33 25 23 23 19 19 16 12 16 20 24 29 25 20 22 32 26 21 15 9 8 8 17 22 18 21 20 18 15 12 13 11 14 12 14 19 22 11 11 11 11 8 9 10 12 14 13 10 8 7 7 5 5
32 26 24 23 21 20 18 15 15 25 23 33 33 25 21 18 22 17 9 6 5 7 12 16 10 18 16 16 18 9 9 7 7 9 12 6 15 18 14 13 13 12 12 13 14 14 13 11 8 7 7 6 7 7
26 25 25 21 19 19 17 18 26 25 29 28 24 26 24 13 5 5 10 9 7 6 16 17 18 17 16 12 9 5 5 7 4 9 10 5 11 14 14 15 14 13 12 12 12 12 10 9 8 8 7 7 7 6
26 22 21 21 19 17 22 29 27 29 27 26 28 24 15 5 6 7 8 10 8 18 19 18 18 15 13 6 6 5 5 4 5 6 5 7 12 13 15 15 14 14 14 13 12 11 10 10 9 8 9 8 7 7
23 23 22 24 24 21 20 22 30 33 29 23 13 8 6 5 6 10 15 17 14 19 17 17 16 11 10 6 5 4 5 6 4 4 4 11 12 14 14 14 13 13 12 12 11 11 12 11 9 9 10 9 8 8
27 26 26 23 21 20 23 26 33 29 26 14 7 4 6 9 15 18 18 16 18 19 18 15 13 5 9 4 4 4 7 4 6 4 5 8 11 11 14 14 13 11 9 9 11 11 11 10 9 9 11 11 11 11
26 24 21 20 19 18 26 28 26 25 16 8 7 10 14 15 15 16 16 17 18 21 18 14 9 5 6 4 5 4 5 3 5 6 5 6 10 13 14 12 11 11 11 10 10 10 11 10 10 10 13 14 15 15
23 23 23 21 19 20 27 24 19 20 7 7 10 8 8 10 11 14 14 14 18 20 23 9 6 5 5 4 5 6 5 3 5 6 6 10 13 12 11 11 11 11 11 10 10 12 12 10 10 11 12 15 18 19
20 23 24 24 24 24 21 18 13 7 16 16 12 11 11 8 9 13 15 16 19 20 16 8 7 7 5 5 7 7 8 6 7 10 11 11 11 11 10 10 10 10 10 11 12 12 12 11 11 12 15 17 19 20
31 30 28 29 25 17 21 18 19 20 17 16 16 15 14 12 10 11 14 18 19 18 14 9 6 9 8 8 10 10 7 7 12 13 11 9 8 8 8 8 8 9 10 12 13 13 13 12 12 12 14 16 18 20
28 33 29 22 15 19 16 18 22 16 18 18 18 16 15 14 14 13 13 14 13 11 12 5 4 11 11 15 14 10 7 8 11 12 11 9 8 9 9 9 9 9 10 11 12 13 14 14 14 15 16 17 18 20
19 19 18 17 11 16 17 12 16 16 18 17 17 16 15 14 13 11 8 6 7 8 8 5 5 4 3 7 8 8 8 8 10 10 10 10 11 11 11 12 13 13 13 13 14 15 16 17 19 18 18 19 21 22
14 13 11 10 8 7 7 10 14 16 12 15 15 14 13 11 9 6 3 2 2 3 5 8 11 12 11 10 9 8 10 12 13 13 13 13 13 11 11 12 14 15 15 17 18 19 19 20 21 22 22 22 21 23
13 11 10 11 7 5 8 11 14 13 11 13 11 9 7 4 2 2 1 5 6 7 8 11 12 13 15 17 19 19 19 20 21 22 22 21 22 22 23 23 21 20 21 21 21 22 23 23 23 23 25 25 24 22
11 11 9 7 5 5 13 14 13 13 11 13 9 5 3 2 4 7 9 10 10 11 11 13 15 17 17 16 16 16 16 16 17 21 23 24 24 24 24 24 23 22 23 24 24 24 24 24 25 25 25 25 25 25
9 7 5 6 7 9 13 14 13 12 9 10 7 7 5 8 10 13 16 15 10 7 9 12 14 16 17 16 15 15 17 19 20 21 22 22 21 22 23 23 23 23 23 24 25 26 26 26 25 25 26 25 26 26
6 5 6 9 9 9 8 11 10 11 10 8 7 8 8 9 9 8 13 11 9 11 11 11 12 13 15 17 18 20 21 21 21 22 23 23 23 23 23 24 24 24 24 24 26 27 27 26 26 27 28 27 27 27
5 4 6 8 9 9 11 10 10 10 9 9 11 9 7 5 6 9 8 7 8 10 11 10 11 11 12 13 14 16 17 19 21 21 22 22 23 23 23 23 24 24 24 24 25 25 26 26 26 26 27 26 26 26
5 6 8 10 10 11 10 10 10 8 8 10 10 8 5 5 6 7 7 10 11 11 8 7 7 8 8 8 10 12 13 14 14 15 16 17 16 17 19 19 19 20 21 22 22 22 23 23 23 23 22 21 22 22
7 8 8 8 8 11 10 10 10 8 8 8 12 12 13 13 14 15 11 11 11 10 10 12 14 14 13 13 14 14 14 14 14 15 15 13 14 15 16 17 18 19 20 20 21 21 22 22 21 20 19 19 19 20
6 5 7 8 8 10 11 9 9 11 12 12 12 12 13 15 16 17 18 18 19 18 17 18 20 21 20 19 18 18 18 17 16 16 17 17 16 17 18 19 19 20 20 20 20 21 20 20 20 19 18 18 19 19
7 6 7 9 11 10 11 13 16 16 18 19 21 22 23 23 24 24 24 24 24 24 23 23 23 24 24 24 22 21 20 20 19 19 19 20 20 20 20 20 20 20 20 20 20 20 20 19 19 18 17 17 17 17
11 10 9 10 12 12 14 15 16 19 21 22 23 24 25 25 25 27 26 25 25 25 24 24 24 24 24 24 23 21 21 21 21 20 19 19 19 20 20 20 20 20 19 18 17 17 16 16 16 16 16 16 16 17
14 15 16 17 18 20 20 20 21 19 22 22 21 21 21 22 23 24 23 22 22 22 22 22 21 19 19 20 19 18 18 18 18 18 19 19 20 19 19 18 17 16 16 16 16 16 15 14 14 14 14 15 16 16

GFSWCAN_700_spd_147.txt.gz
Wind_Speed
35 33 33 30 30 32 33 31 27 25 22 21 20 20 20 19 15 16 18 25 25 27 20 15 17 27 31 33 33 29 26 30 31 28 25 9 8 17 10 17 24 29 20 17 15 9 8 12 13 14 8 6 4 6
30 29 29 31 29 32 32 29 26 22 21 20 18 19 20 23 22 19 17 16 24 29 22 20 21 22 28 35 32 31 28 34 30 32 18 10 11 15 15 14 21 21 24 18 18 13 12 5 15 11 9 7 6 7
27 29 30 30 32 33 31 28 24 22 18 17 22 23 18 24 24 24 16 18 24 13 21 22 20 20 26 28 36 34 39 30 33 31 19 15 8 16 19 20 23 27 27 21 17 21 15 14 13 12 10 9 8 7
29 30 27 30 34 30 27 26 23 19 18 18 27 22 16 15 17 20 18 18 21 26 17 18 15 22 20 29 28 30 27 39 30 25 20 11 14 12 16 14 22 21 25 26 25 17 13 14 14 13 11 10 8 7
24 25 22 24 25 23 28 23 19 17 18 16 28 22 18 16 15 23 27 27 26 26 21 17 15 20 22 19 18 8 8 7 13 21 16 18 18 18 22 21 20 24 23 24 23 20 16 11 11 12 12 11 9 8
20 19 15 25 27 25 23 19 17 17 16 19 24 24 19 16 24 20 26 27 29 22 25 18 18 20 22 21 16 11 9 11 13 15 16 18 19 16 10 14 18 20 18 14 14 13 13 15 13 14 13 10 10 9
11 13 11 19 27 23 19 17 16 17 16 21 27 20 20 17 18 30 25 24 23 23 25 22 17 23 25 18 16 12 12 14 17 18 15 15 12 11 12 14 12 14 18 16 13 11 10 10 10 11 12 11 11 8
9 10 6 20 24 21 16 15 16 17 19 24 28 19 16 13 7 27 28 23 22 29 17 11 20 20 21 18 17 16 16 19 20 19 20 20 17 15 14 16 14 12 14 14 13 11 11 10 11 12 12 12 8 7
16 12 17 21 22 20 16 15 16 15 22 23 29 17 15 19 15 25 23 17 14 6 5 11 20 20 19 17 16 15 15 15 15 20 22 18 22 16 15 16 15 13 11 9 11 11 11 10 11 13 12 10 9 9
17 21 27 22 19 17 15 15 15 21 24 25 23 24 28 25 25 25 20 16 11 9 9 13 20 17 21 20 18 16 11 11 7 14 13 20 27 29 25 12 14 13 14 13 11 11 12 14 14 13 11 11 10 10
27 30 26 22 17 15 16 15 19 21 25 27 27 27 28 31 26 16 8 5 6 6 9 15 15 14 20 19 17 13 7 6 5 7 12 7 22 24 20 20 13 12 13 14 16 17 15 12 11 10 8 8 9 11
30 25 21 21 18 17 16 14 17 21 23 24 19 19 26 20 10 6 8 6 5 5 17 20 16 18 18 14 12 7 6 6 4 6 9 6 13 9 16 16 14 14 13 12 11 12 13 13 11 10 9 10 11 12
26 22 21 19 19 16 13 19 21 23 28 23 21 8 8 4 3 6 6 7 7 17 21 19 20 16 14 8 6 6 5 5 3 7 5 8 6 9 17 16 17 16 14 14 12 13 13 12 10 9 9 12 13 12
23 20 18 19 19 17 21 24 25 31 31 25 9 9 4 4 6 7 12 12 14 15 18 19 17 11 10 7 4 4 4 5 5 5 4 6 7 12 16 17 16 14 13 13 13 12 12 11 11 9 9 12 14 15
23 21 19 20 22 27 24 27 25 25 24 9 7 4 6 7 10 13 17 12 15 16 15 15 13 5 8 3 4 3 4 3 4 4 4 5 8 13 15 16 14 14 13 13 13 13 12 11 11 10 10 14 17 17
28 25 22 21 22 23 31 29 22 17 13 7 4 8 10 13 14 15 16 18 19 18 17 12 9 4 5 3 4 4 3 3 3 6 5 7 11 12 15 15 14 14 14 15 15 15 13 12 13 12 11 14 18 19
23 22 22 21 22 28 27 21 21 16 6 6 7 11 12 14 14 14 17 18 18 19 19 7 6 5 4 3 5 4 4 3 5 6 6 6 11 15 16 16 14 14 14 14 13 12 12 12 11 11 12 16 19 22
19 19 19 22 25 23 16 17 18 5 5 11 9 8 8 10 12 12 12 14 18 20 19 8 6 7 5 5 7 7 5 6 4 7 6 8 10 11 12 12 11 11 12 13 13 12 12 12 13 14 15 16 17 19
15 16 16 16 18 18 16 9 6 10 12 10 9 9 8 7 10 13 13 12 14 16 15 7 3 8 8 6 6 7 7 4 6 8 8 9 9 9 8 8 8 9 11 12 13 14 15 15 16 16 16 16 16 19
27 25 18 11 10 13 8 11 14 11 13 15 14 12 11 12 12 12 13 14 12 12 11 7 9 8 9 9 8 9 6 6 8 9 9 8 8 8 8 8 8 9 10 11 12 14 15 16 18 19 19 19 18 20
21 15 11 12 12 14 14 10 13 14 15 16 15 13 14 14 13 13 12 10 9 9 7 6 5 3 9 12 14 13 10 8 9 10 12 11 11 11 11 12 12 13 14 15 15 17 18 19 20 19 20 21 23 23
12 10 8 9 11 8 7 10 12 14 12 14 13 15 14 12 10 8 6 4 4 5 7 8 10 9 8 8 8 9 10 10 10 10 10 11 11 11 11 11 12 13 15 17 18 19 20 22 23 23 23 25 26 27
12 9 8 7 5 4 7 8 14 11 10 13 13 11 10 8 6 4 3 1 2 3 6 9 11 13 15 17 17 16 16 17 17 17 18 19 20 20 21 22 22 22 23 23 22 23 24 25 25 26 27 27 27 28
11 9 8 5 6 5 9 12 13 12 12 15 13 9 8 6 4 4 5 7 8 9 11 13 15 16 17 17 17 17 18 19 20 20 20 20 21 21 22 23 25 25 25 25 25 25 26 27 27 27 27 27 28 28
9 7 5 6 7 7 10 14 13 12 9 14 12 8 6 6 7 10 13 13 11 11 11 12 13 15 17 17 18 17 17 18 19 20 21 22 22 21 21 22 24 24 24 24 25 26 26 25 26 26 27 27 27 28
7 5 4 5 7 7 7 9 11 11 10 9 8 8 8 9 10 9 15 12 10 10 11 12 14 15 15 14 14 17 18 19 20 21 21 22 23 23 23 23 24 24 25 25 26 26 26 26 26 26 26 27 28 28
6 5 6 7 9 9 9 10 11 11 11 10 12 10 10 6 6 9 9 8 8 8 11 13 13 12 11 12 12 13 15 16 17 17 17 19 21 22 22 22 23 24 24 24 24 25 25 24 24 24 24 24 25 26
7 6 8 8 9 10 11 11 12 12 12 12 12 9 6 6 7 8 9 9 12 12 11 9 7 7 7 8 9 11 13 14 15 15 15 15 15 16 16 17 18 19 19 19 20 20 21 21 21 21 21 21 22 23
7 8 9 10 11 11 14 15 13 13 12 11 12 11 14 12 12 13 14 16 14 13 13 14 14 13 13 13 14 14 15 16 16 16 15 15 16 16 16 16 17 18 19 19 20 21 22 22 22 22 21 20 20 21
9 10 9 9 10 9 10 11 10 12 13 12 12 14 15 16 16 17 17 18 20 21 22 23 23 22 21 20 20 20 20 20 20 19 19 18 18 18 19 19 20 20 20 21 21 22 22 22 22 21 21 20 19 19
8 9 9 9 10 9 9 11 13 14 15 17 18 20 22 24 25 25 26 26 26 26 26 26 26 26 26 25 25 24 23 22 21 21 21 21 22 22 22 22 22 22 22 22 22 23 23 22 21 20 19 18 17 17
16 14 12 12 11 11 13 14 16 19 19 20 22 24 26 27 27 27 25 25 25 24 25 25 25 25 25 25 24 23 23 22 22 21 22 22 21 21 21 21 22 22 22 21 20 19 18 18 18 18 18 17 16 16
12 12 14 16 17 18 18 18 20 23 24 24 23 23 23 22 23 23 23 22 22 22 22 22 22 23 24 23 22 21 20 20 19 19 19 19 20 21 21 20 20 19 18 17 17 16 16 15 14 13 14 14 15 16

GFSWCAN_700_spd_150.txt.gz
Wind_Speed
42 37 35 34 32 33 31 27 28 30 29 26 24 24 24 25 25 26 24 28 34 31 29 21 20 20 20 18 18 17 16 25 22 25 23 12 16 20 14 15 19 24 17 16 19 12 12 10 15 14 11 8 6 7
38 34 34 35 32 30 29 29 30 30 27 25 23 21 21 23 24 21 21 19 25 33 27 23 25 23 22 21 23 24 22 20 25 24 21 20 13 13 20 9 16 20 24 19 17 21 12 4 14 14 12 9 6 7
35 34 34 31 30 30 30 31 30 28 26 23 22 21 19 18 22 27 22 15 15 25 30 28 25 24 23 21 23 28 26 26 30 32 25 16 13 15 15 17 18 22 20 22 18 21 19 13 13 12 14 12 8 9
33 33 34 34 32 29 29 30 29 27 24 23 21 19 23 20 23 28 22 16 17 25 24 24 15 22 22 20 19 25 31 31 31 29 32 24 18 14 17 17 23 22 21 26 27 23 15 15 15 14 14 11 10 9
32 32 31 32 29 27 30 30 28 26 22 20 17 22 23 19 17 23 23 23 22 20 11 25 24 15 14 14 13 19 24 29 27 30 23 25 20 14 15 15 18 21 23 24 28 25 24 15 9 12 14 13 12 9
30 30 27 26 25 28 26 27 26 25 21 19 17 24 23 16 14 16 20 22 20 19 18 12 14 15 15 17 18 10 12 8 5 8 10 9 16 12 8 17 21 23 18 18 16 17 10 13 15 14 16 15 12 11
25 20 21 22 25 25 27 24 22 20 19 17 18 24 20 16 16 21 15 19 22 25 17 12 12 20 22 17 12 10 9 7 8 10 9 11 12 14 19 13 9 13 16 16 13 13 13 13 12 15 17 16 15 13
22 19 21 23 26 22 23 21 19 17 16 15 18 21 14 13 9 16 19 23 29 23 21 8 10 25 24 19 16 14 12 12 14 12 12 10 9 10 5 5 3 5 8 13 15 14 14 11 13 14 16 16 13 11
21 18 22 23 23 21 18 16 16 17 16 13 17 16 11 11 23 25 22 22 22 12 7 12 19 25 23 20 16 15 14 15 15 18 18 12 15 11 7 10 11 12 11 10 13 15 11 10 12 14 15 14 13 11
21 25 19 25 22 17 15 16 16 15 16 18 19 15 11 24 28 25 23 17 7 4 4 16 24 16 24 19 17 14 11 10 5 11 12 18 24 23 23 20 15 12 13 15 13 9 9 11 12 13 13 13 12 10
27 25 23 21 18 15 14 15 20 19 22 22 24 15 17 29 28 14 6 6 5 6 9 13 19 12 18 18 17 12 5 5 4 6 8 6 14 16 18 19 18 17 14 15 14 13 15 12 11 13 12 10 8 9
26 24 20 17 16 15 14 20 22 22 22 21 17 27 31 23 8 5 7 6 6 6 12 18 18 15 16 16 10 9 5 5 3 4 5 3 6 7 8 14 13 13 12 12 13 13 15 17 17 15 12 10 10 11
25 21 18 15 15 14 13 16 21 18 18 18 17 17 12 5 5 6 6 6 6 10 15 19 17 15 14 9 5 6 5 4 3 3 3 3 4 6 9 13 13 12 12 13 12 13 14 15 13 12 11 9 10 11
19 19 17 15 14 11 12 16 20 19 21 12 7 6 4 5 5 7 9 9 8 15 18 17 18 10 11 8 5 4 4 3 3 3 3 5 5 7 12 14 12 11 13 13 13 13 12 12 12 12 10 9 11 13
19 17 16 15 13 16 18 18 21 21 15 9 6 3 5 4 8 10 11 10 14 18 18 17 10 9 8 3 3 2 3 2 3 4 5 3 4 7 12 12 12 12 12 12 13 13 13 12 11 12 11 10 12 15
16 16 15 15 18 19 19 19 17 17 10 6 4 6 6 7 9 12 12 16 19 20 18 14 6 5 4 2 2 2 2 2 4 5 2 3 6 10 13 13 13 13 14 14 14 14 13 12 13 14 12 11 12 16
14 15 20 21 19 20 20 13 13 9 4 6 5 5 6 8 10 12 12 15 17 17 15 6 5 3 3 2 3 2 3 4 4 3 3 4 8 12 16 15 14 14 15 15 14 14 14 14 14 14 14 15 16 16
13 14 17 19 23 22 17 13 11 4 4 8 7 7 7 8 10 14 18 15 13 14 12 5 4 5 3 2 4 4 5 5 4 4 5 6 6 10 13 14 13 13 13 14 14 13 13 14 15 16 17 15 15 16
12 14 16 18 16 12 11 9 10 4 7 7 8 7 7 7 8 8 8 12 14 15 12 4 2 1 5 5 4 4 5 4 3 3 4 4 5 6 7 8 8 9 9 10 11 12 13 14 14 15 17 18 18 18
15 14 11 9 10 8 4 6 7 7 8 10 9 8 8 7 8 8 8 7 7 9 10 7 7 9 7 8 6 7 7 4 4 4 4 5 5 5 6 6 6 7 8 9 10 12 13 15 16 18 18 19 19 20
18 14 11 10 7 3 7 5 10 12 12 12 11 12 15 15 13 11 8 8 1 3 1 1 3 3 6 9 9 9 9 6 5 7 7 7 7 7 7 8 10 11 12 13 14 15 16 17 18 18 19 20 21 22
8 9 11 8 8 6 4 6 9 10 8 12 11 12 13 12 11 9 8 6 6 6 7 7 6 7 5 5 6 8 9 8 7 7 8 10 11 10 10 11 12 13 13 13 14 16 18 19 20 21 22 24 25 26
3 3 3 2 2 3 6 7 10 9 7 9 10 9 9 8 6 6 4 4 3 1 2 4 8 12 14 15 15 15 15 15 15 15 15 15 15 16 18 20 22 23 24 25 25 25 25 25 25 26 26 27 27 28
5 4 4 2 3 2 4 8 10 9 8 12 11 8 8 6 5 3 2 2 4 6 8 11 12 13 14 16 17 18 19 20 21 21 21 20 20 20 20 20 21 22 24 24 25 25 26 26 26 27 27 28 29 29
6 5 4 4 4 4 6 8 10 10 10 12 14 12 7 8 7 8 10 9 9 11 12 14 14 14 15 15 15 17 19 20 20 20 20 20 21 22 22 23 23 23 24 23 23 23 24 24 25 26 27 27 28 28
6 5 5 4 6 7 7 8 9 11 10 9 9 10 10 9 8 6 10 9 10 11 11 11 12 14 16 17 16 15 15 16 18 19 20 21 23 24 24 24 24 24 24 25 25 25 25 25 25 25 26 26 26 27
6 6 5 7 7 7 7 8 8 9 10 10 11 10 9 6 5 9 8 8 9 7 8 12 12 11 11 11 11 11 11 12 13 15 16 17 18 18 19 19 20 22 23 23 24 24 24 24 23 22 22 22 22 23
7 9 8 10 11 11 11 11 11 10 10 11 11 9 5 5 7 8 8 8 10 11 13 10 9 9 9 10 11 12 12 12 13 13 14 15 16 16 17 17 17 17 18 18 18 18 19 19 20 20 20 21 22 22
8 9 10 11 12 14 16 17 17 17 16 15 14 13 14 14 13 13 13 13 13 15 14 14 15 17 17 17 17 18 19 19 18 18 19 18 18 17 18 18 18 19 19 20 21 21 21 21 22 21 21 21 20 20
10 10 12 12 12 13 13 13 12 12 15 16 15 14 14 14 14 15 16 17 18 19 20 22 23 24 24 24 23 23 23 23 24 23 23 22 22 22 21 21 22 22 22 22 23 23 23 23 23 22 22 21 20 19
13 12 12 12 12 10 12 12 12 14 14 14 16 18 19 19 20 21 22 24 25 26 27 28 28 28 28 27 27 27 27 27 27 26 25 25 24 24 24 24 24 24 23 23 22 22 22 22 20 19 18 17 17 16
14 16 17 16 14 12 12 14 16 18 19 20 21 22 23 23 25 28 28 28 27 26 25 25 25 26 26 26 25 25 25 24 23 23 22 22 22 22 22 21 21 21 22 21 20 19 18 17 16 15 15 15 14 14
13 12 14 17 17 16 16 16 18 21 23 23 24 25 26 26 27 27 26 24 23 23 23 23 23 22 22 21 22 22 22 21 21 20 19 19 19 19 20 20 19 18 17 16 15 14 13 12 11 11 11 12 13 14